[[{"header":{"parameterUnit":"m.s-1","parameterCategory":2,"la1":30.2991,"la2":30.254,"lo1":-89.0895,"lo2":-89.0444,"dy":0.0017,"dx":0.0017,"nx":28,"ny":28,"refTime":"2024-07-27T21:00:00:Z","depth":"0","parameterNumber":2,"parameterNumberName":"U-component_of_CURRENTS"},"data":[0,0,0,0,0,0,0,0,0,0,0,0,0,0,0,0,0,0,0,0,0,0,0,0,0,0,0,0,0,0,0,0,0,0,0,0,0,0,0,0,0,0,0,0,0,0,0,0,0,0,0,0,0,0,0,0,0,0,0.4101,0.4102,0,0.419,0.419,0.4191,0.4221,0.4221,0.4221,0.4221,0.4248,0.4249,0.4249,0,0,0,0,0,0,0,0,0,0,0,0,0,0.3958,0.396,0.4101,0.4102,0.4104,0.419,0.419,0.4191,0.4221,0.4221,0.4221,0.4221,0.4248,0.4249,0.4249,0,0,0,0,0,0,0,0,0,0,0,0,0,0.4026,0.3961,0.41,0.4133,0.4137,0.419,0.419,0.4191,0.4221,0.4221,0.4221,0.4221,0.4248,0.4249,0.425,0.4252,0,0,0.4252,0.4253,0,0,0,0,0,0,0,0,0.4022,0.403,0.4127,0.4131,0.4136,0.4199,0.415,0.421,0.4221,0.4184,0.4221,0.4222,0.4229,0.4232,0.4242,0.4254,0.4255,0.4252,0.4253,0.4253,0.4254,0,0,0,0,0,0,0,0.4017,0.4027,0.4131,0.4128,0.4134,0.4144,0.4153,0.4162,0.4199,0.4187,0.4191,0.4209,0.423,0.4241,0.4242,0.4255,0.4252,0.4253,0.4254,0.4254,0.4272,0.4272,0,0,0,0,0,0,0.4017,0.4023,0.4128,0.4134,0.4084,0.4147,0.4157,0.4174,0.4201,0.4207,0.4208,0.421,0.4239,0.4241,0.4243,0.4251,0.4253,0.4254,0.4255,0.4272,0.4272,0.4272,0,0,0,0,0,0,0.4013,0.4025,0.4125,0.4084,0.4098,0.415,0.4169,0.4176,0.4187,0.4219,0.4223,0.4212,0.4239,0.4242,0.4248,0.4252,0.4255,0.4256,0.4272,0.4272,0.4272,0.4263,0,0,0,0,0,0,0.4009,0.4023,0.4026,0.4084,0.4101,0.4145,0.4169,0.4178,0.42,0.4203,0.4223,0.4226,0.424,0.4246,0.4249,0.4253,0.4256,0.4272,0.4272,0.4272,0.4264,0.4263,0.4262,0,0,0,0,0,0.4003,0.4001,0.4025,0.4038,0.4106,0.4145,0.4153,0.4187,0.42,0.4198,0.4216,0.4226,0.4247,0.4247,0.425,0.4254,0.4272,0.4272,0.4272,0.4264,0.4263,0.4262,0,0,0,0,0,0,0.3934,0.4007,0.4033,0.4053,0.4095,0.4152,0.4156,0.4184,0.4198,0.4198,0.4223,0.4227,0.4234,0.4242,0.4242,0.4259,0.4262,0.4262,0.4255,0.4254,0.4253,0.4244,0.4257,0,0,0,0,0,0.3925,0.3946,0.4014,0.4028,0.4048,0.4102,0.4121,0.4148,0.4177,0.4184,0.4202,0.4219,0.4236,0.4243,0.4253,0.426,0.4288,0.4265,0.4264,0.4264,0.4258,0.4302,0.4305,0.4271,0.4271,0.4271,0,0,0.3903,0.3947,0.3957,0.4016,0.405,0.4077,0.4111,0.4138,0.4157,0.4183,0.4195,0.4213,0.4236,0.4247,0.4251,0.4255,0.4291,0.4263,0.4263,0.4257,0.4302,0.4305,0.4308,0.4271,0.4271,0.4271,0,0,0.3875,0.3908,0.392,0.3956,0.4014,0.4047,0.4055,0.4109,0.4126,0.4149,0.4173,0.4189,0.4214,0.4233,0.4247,0.4246,0.4284,0.4253,0.4245,0.4288,0.4291,0.4294,0.4351,0.4359,0.4255,0.4255,0.4255,0,0.3844,0.3879,0.3925,0.3951,0.3979,0.4033,0.4051,0.4078,0.4125,0.4139,0.4146,0.4193,0.4208,0.4235,0.4237,0.4244,0.4283,0.4248,0.4288,0.4291,0.4295,0.4352,0.4362,0.4255,0.4255,0.4255,0.4255,0,0.3839,0.3863,0.387,0.3926,0.3953,0.3974,0.403,0.4048,0.4078,0.4112,0.414,0.4165,0.4195,0.4205,0.4223,0.4255,0.4281,0.4282,0.4292,0.4298,0.4358,0.4368,0.4254,0.4254,0.4254,0.4254,0,0,0.3777,0.3852,0.3853,0.3877,0.3944,0.3965,0.3994,0.4039,0.4064,0.4095,0.4126,0.4154,0.4174,0.4191,0.4216,0.4251,0.4314,0.4277,0.428,0.4337,0.4431,0.4431,0.4442,0.4331,0.4332,0.4333,0.447,0,0.3758,0.3795,0.3838,0.3863,0.3887,0.3943,0.3966,0.4012,0.4056,0.4093,0.4128,0.4163,0.4169,0.4193,0.4224,0.4293,0.4337,0.4278,0.4413,0.4417,0.4418,0.4451,0.4223,0.4324,0.448,0.4481,0.4483,0,0.374,0.3772,0.3792,0.3848,0.3861,0.388,0.3935,0.3968,0.4035,0.4073,0.4115,0.4152,0.4205,0.4209,0.432,0.4288,0.4355,0.4405,0.4412,0.4417,0.4434,0.4339,0.4336,0.4173,0.4498,0.4497,0.4496,0,0.3678,0.3736,0.3747,0.3768,0.3835,0.3849,0.3888,0.3957,0.3985,0.407,0.4094,0.4168,0.4203,0.4289,0.4386,0.4368,0.4519,0.4507,0.457,0.4572,0.4404,0.4389,0.4255,0.4587,0.4587,0.4586,0.4586,0,0.3639,0.3645,0.3721,0.3722,0.3738,0.381,0.3833,0.3888,0.3961,0.3996,0.4074,0.412,0.4225,0.4317,0.4406,0.4525,0.454,0.4578,0.4607,0.4397,0.4381,0.4254,0.4213,0.4592,0.4591,0.4589,0.4589,0,0.3554,0.3602,0.362,0.3687,0.3705,0.3718,0.3791,0.3814,0.3896,0.3948,0.3973,0.4095,0.4231,0.4341,0.4503,0.4546,0.4535,0.4707,0.4466,0.4463,0.4354,0.4324,0.4167,0.4059,0.4794,0.4795,0.4796,0,0.3514,0.3516,0.3575,0.3582,0.3606,0.3646,0.3667,0.3765,0.3799,0.3937,0.3951,0.41,0.4197,0.443,0.4551,0.4712,0.4552,0.4578,0.449,0.4321,0.4308,0.4161,0.407,0.4273,0.4269,0.4266,0.4264,0,0.3443,0.346,0.3477,0.3496,0.3516,0.3539,0.3588,0.3601,0.3721,0.3778,0.3899,0.4,0.4225,0.4294,0.449,0.4555,0.4317,0.4526,0.4383,0.392,0.3714,0.3631,0.4235,0.4237,0.424,0.4242,0.4243,0.4244,0.3398,0.3384,0.3411,0.3413,0.3428,0.3429,0.3414,0.3484,0.3533,0.3598,0.3777,0.385,0.3983,0.4242,0.4304,0.4174,0.4227,0.4016,0.4011,0.3891,0.3703,0.4277,0.4294,0.4297,0.4299,0.4301,0.4303,0,0.3358,0.3341,0.3332,0.3327,0.3294,0.3338,0.3348,0.3315,0.3336,0.3452,0.3548,0.3584,0.3628,0.3713,0.3732,0.365,0.3486,0.3507,0.318,0.3136,0.3654,0.3543,0.3355,0.3356,0.3356,0.3356,0.3356,0.3356,0.3347,0.3307,0.3281,0.3203,0.3184,0.3111,0.3091,0.307,0.3106,0.3076,0.3067,0.3154,0.325,0.3284,0.3176,0.3103,0.2879,0.2746,0.2805,0.3093,0.3136,0.3176,0.3056,0.2769,0.2769,0.2081,0.2076,0.2072]},{"header":{"parameterUnit":"m.s-1","parameterCategory":2,"la1":30.2991,"la2":30.254,"lo1":-89.0895,"lo2":-89.0444,"dy":0.0017,"dx":0.0017,"nx":28,"ny":28,"refTime":"2024-07-27T21:00:00:Z","depth":"0","parameterNumber":3,"parameterNumberName":"V-component_of_CURRENTS"},"data":[0,0,0,0,0,0,0,0,0,0,0,0,0,0,0,0,0,0,0,0,0,0,0,0,0,0,0,0,0,0,0,0,0,0,0,0,0,0,0,0,0,0,0,0,0,0,0,0,0,0,0,0,0,0,0,0,0,0,-0.0321,-0.0322,0,-0.0397,-0.0398,-0.0399,-0.0432,-0.0432,-0.0432,-0.0432,-0.0474,-0.0475,-0.0477,0,0,0,0,0,0,0,0,0,0,0,0,0,-0.0258,-0.0259,-0.0321,-0.0322,-0.0323,-0.0397,-0.0398,-0.0399,-0.0432,-0.0432,-0.0432,-0.0432,-0.0474,-0.0475,-0.0477,0,0,0,0,0,0,0,0,0,0,0,0,0,-0.0305,-0.0259,-0.0321,-0.0348,-0.0351,-0.0397,-0.0398,-0.0399,-0.0433,-0.0432,-0.0432,-0.0432,-0.0473,-0.0475,-0.0477,-0.0492,0,0,-0.0483,-0.0483,0,0,0,0,0,0,0,0,-0.0302,-0.0307,-0.0343,-0.0346,-0.035,-0.0405,-0.0391,-0.0428,-0.0433,-0.0402,-0.0432,-0.0432,-0.0448,-0.0452,-0.0467,-0.0494,-0.0496,-0.0483,-0.0484,-0.0485,-0.0485,0,0,0,0,0,0,0,-0.0299,-0.0305,-0.0351,-0.0344,-0.0348,-0.0375,-0.0381,-0.0399,-0.0424,-0.0405,-0.0407,-0.0415,-0.045,-0.0465,-0.0468,-0.0496,-0.0483,-0.0484,-0.0486,-0.0486,-0.0513,-0.0513,0,0,0,0,0,0,-0.0287,-0.0301,-0.0349,-0.0353,-0.0325,-0.0376,-0.0383,-0.0388,-0.0425,-0.0431,-0.0416,-0.0417,-0.0462,-0.0466,-0.047,-0.0465,-0.0485,-0.0486,-0.0487,-0.0513,-0.0513,-0.0513,0,0,0,0,0,0,-0.0285,-0.029,-0.0346,-0.0329,-0.0338,-0.0377,-0.0382,-0.0389,-0.0402,-0.0434,-0.0439,-0.0421,-0.0462,-0.0467,-0.0476,-0.0468,-0.0487,-0.0489,-0.0514,-0.0513,-0.0513,-0.0471,0,0,0,0,0,0,-0.0283,-0.0289,-0.0287,-0.0328,-0.0339,-0.0363,-0.0383,-0.0391,-0.0408,-0.041,-0.044,-0.0444,-0.0463,-0.0473,-0.0477,-0.0471,-0.049,-0.0514,-0.0514,-0.0513,-0.0473,-0.0469,-0.0466,0,0,0,0,0,-0.028,-0.0275,-0.0287,-0.0293,-0.0335,-0.0362,-0.037,-0.0398,-0.0408,-0.041,-0.0427,-0.0443,-0.0471,-0.0474,-0.048,-0.0473,-0.0515,-0.0514,-0.0513,-0.0475,-0.047,-0.0466,0,0,0,0,0,0,-0.0243,-0.028,-0.0293,-0.0298,-0.0324,-0.0368,-0.0372,-0.0394,-0.0413,-0.041,-0.044,-0.0445,-0.0448,-0.0467,-0.0469,-0.0478,-0.0495,-0.0495,-0.0464,-0.046,-0.0457,-0.0439,-0.0492,0,0,0,0,0,-0.0235,-0.0243,-0.028,-0.0283,-0.0294,-0.0333,-0.0347,-0.0366,-0.039,-0.0398,-0.0421,-0.0439,-0.0451,-0.0459,-0.0473,-0.0481,-0.0493,-0.048,-0.0477,-0.0473,-0.0463,-0.0483,-0.048,-0.051,-0.051,-0.051,0,0,-0.022,-0.0242,-0.0246,-0.0276,-0.0298,-0.0304,-0.0341,-0.0356,-0.0358,-0.0398,-0.0403,-0.0426,-0.0449,-0.0454,-0.0458,-0.0469,-0.0469,-0.0472,-0.0469,-0.046,-0.0482,-0.0479,-0.0476,-0.0509,-0.0509,-0.0509,0,0,-0.0194,-0.0214,-0.0211,-0.023,-0.026,-0.0281,-0.0282,-0.0321,-0.0334,-0.0348,-0.0371,-0.0387,-0.0413,-0.0427,-0.0438,-0.0423,-0.0447,-0.0431,-0.0403,-0.0423,-0.042,-0.0418,-0.042,-0.0419,-0.0432,-0.0432,-0.0432,0,-0.017,-0.0177,-0.0213,-0.0216,-0.0223,-0.0264,-0.0257,-0.0278,-0.0314,-0.0317,-0.0338,-0.0372,-0.0398,-0.0399,-0.0399,-0.0415,-0.0425,-0.0417,-0.0418,-0.0416,-0.0415,-0.0417,-0.0416,-0.043,-0.043,-0.0431,-0.0431,0,-0.0147,-0.015,-0.0148,-0.0162,-0.0174,-0.0175,-0.0206,-0.0212,-0.0235,-0.0259,-0.027,-0.0312,-0.033,-0.0347,-0.0372,-0.0374,-0.0383,-0.0408,-0.0427,-0.0409,-0.0413,-0.0413,-0.0427,-0.0428,-0.0429,-0.0429,0,0,-0.0083,-0.0123,-0.0119,-0.0117,-0.0145,-0.0148,-0.0145,-0.0154,-0.014,-0.0188,-0.0179,-0.0224,-0.0253,-0.0266,-0.0304,-0.0332,-0.034,-0.0367,-0.0369,-0.0365,-0.037,-0.0327,-0.0323,-0.037,-0.037,-0.037,-0.0372,0,-0.0046,-0.0041,-0.0072,-0.005,-0.0043,-0.0075,-0.0067,-0.008,-0.0098,-0.0098,-0.0151,-0.0159,-0.022,-0.0229,-0.0266,-0.0315,-0.0339,-0.0335,-0.0391,-0.0391,-0.0353,-0.0321,-0.0252,-0.0244,-0.0372,-0.0372,-0.0372,0,-0.0001,-0.0006,0.0014,0.0009,0.0011,0.0021,0.0038,0.0037,0.0022,0.0007,-0.0019,-0.0062,-0.01,-0.0161,-0.0236,-0.0232,-0.0294,-0.0343,-0.0345,-0.0317,-0.0347,-0.0285,-0.0239,-0.0405,-0.0372,-0.0372,-0.0372,0,0.007,0.0063,0.0082,0.0079,0.0066,0.0081,0.0081,0.0076,0.0093,0.0078,0.0088,0.0027,0.0013,-0.0081,-0.0177,-0.0213,-0.0253,-0.0315,-0.0331,-0.0329,-0.0285,-0.0278,-0.04,-0.0368,-0.0368,-0.0368,-0.0368,0,0.0131,0.0152,0.0119,0.0133,0.0174,0.0143,0.0192,0.0185,0.0192,0.024,0.0149,0.0177,0.0029,-0.0015,-0.0131,-0.0202,-0.0213,-0.0307,-0.0322,-0.0266,-0.0258,-0.0413,-0.0499,-0.0368,-0.0368,-0.0368,-0.0368,0,0.0219,0.019,0.0215,0.0203,0.0209,0.0241,0.0264,0.0303,0.0292,0.0355,0.0354,0.0299,0.026,0.013,0.0006,-0.0113,-0.0265,-0.0235,-0.0145,-0.0149,-0.0336,-0.042,-0.0505,-0.0556,-0.0265,-0.0264,-0.0263,0,0.0267,0.0286,0.0277,0.0295,0.0296,0.0332,0.0369,0.0364,0.0413,0.0448,0.0493,0.0466,0.0498,0.0338,0.0158,0.0004,-0.018,-0.01,-0.0165,-0.0318,-0.0424,-0.0488,-0.0531,-0.0092,-0.009,-0.0088,-0.0087,0,0.0363,0.035,0.0357,0.0387,0.0423,0.0468,0.0518,0.0578,0.0604,0.0685,0.0778,0.0805,0.0676,0.0572,0.0342,0.0201,-0.0177,-0.0067,-0.0257,-0.0311,-0.0357,-0.0421,-0.012,-0.007,-0.0072,-0.0073,-0.0074,-0.0075,0.0435,0.0448,0.0444,0.0479,0.0526,0.0606,0.0683,0.0774,0.0905,0.1077,0.1057,0.1197,0.0914,0.0642,0.0413,-0.0002,-0.003,-0.0164,-0.0254,-0.0308,-0.0352,0.0003,0.0051,0.0051,0.005,0.0049,0.0048,0,0.0505,0.0505,0.0538,0.058,0.0658,0.0661,0.0787,0.0904,0.1121,0.1324,0.1475,0.147,0.1161,0.0746,0.0191,-0.0139,-0.0282,-0.0349,-0.0458,-0.0497,-0.0204,-0.0194,-0.0158,-0.0158,-0.0157,-0.0157,-0.0157,-0.0157,0.0543,0.0565,0.0562,0.0684,0.0739,0.0873,0.0966,0.1169,0.1349,0.1655,0.182,0.1902,0.1549,0.0493,-0.0244,-0.0425,-0.0684,-0.0693,-0.0861,-0.071,-0.0702,-0.0694,-0.0708,-0.0781,-0.0781,-0.1096,-0.1099,-0.1102]}],[{"header":{"parameterUnit":"m.s-1","parameterCategory":2,"la1":30.2991,"la2":30.254,"lo1":-89.0895,"lo2":-89.0444,"dy":0.0017,"dx":0.0017,"nx":28,"ny":28,"refTime":"2024-07-27T21:00:00:Z","depth":"2","parameterNumber":2,"parameterNumberName":"U-component_of_CURRENTS"},"data":[0,0,0,0,0,0,0,0,0,0,0,0,0,0,0,0,0,0,0,0,0,0,0,0,0,0,0,0,0,0,0,0,0,0,0,0,0,0,0,0,0,0,0,0,0,0,0,0,0,0,0,0,0,0,0,0,0,0,0.3091,0.3091,0,0.3101,0.3101,0.3101,0.3072,0.3072,0.3071,0.307,0.3036,0.3036,0.3036,0,0,0,0,0,0,0,0,0,0,0,0,0,0.3075,0.3075,0.3091,0.3091,0.3092,0.3101,0.3101,0.3101,0.3072,0.3072,0.3071,0.307,0.3036,0.3036,0.3036,0,0,0,0,0,0,0,0,0,0,0,0,0,0.308,0.3075,0.3091,0.3081,0.308,0.3101,0.3101,0.3101,0.3072,0.3072,0.3071,0.307,0.3036,0.3036,0.3035,0.305,0,0,0.3034,0.3034,0,0,0,0,0,0,0,0,0.308,0.308,0.3082,0.3082,0.3081,0.3087,0.3083,0.3083,0.3073,0.3072,0.307,0.3069,0.3052,0.305,0.305,0.3048,0.3047,0.3034,0.3033,0.3033,0.3033,0,0,0,0,0,0,0,0.308,0.308,0.3092,0.3083,0.3082,0.3086,0.3085,0.3083,0.3064,0.3072,0.3071,0.3077,0.3051,0.3051,0.3049,0.3047,0.3034,0.3033,0.3033,0.3033,0.3108,0.3111,0,0,0,0,0,0,0.3084,0.308,0.3092,0.3092,0.3082,0.3087,0.3086,0.3084,0.3065,0.3062,0.3078,0.3076,0.3052,0.305,0.3048,0.3106,0.3033,0.3033,0.3032,0.3106,0.3109,0.3111,0,0,0,0,0,0,0.3084,0.3085,0.3091,0.3089,0.3091,0.3088,0.3086,0.3084,0.3099,0.307,0.3066,0.3096,0.3051,0.3048,0.3065,0.3103,0.3033,0.3032,0.3103,0.3107,0.311,0.3196,0,0,0,0,0,0,0.3083,0.3084,0.3097,0.3089,0.3091,0.3119,0.3087,0.3085,0.3105,0.3102,0.3084,0.3079,0.305,0.3067,0.3065,0.3101,0.3032,0.31,0.3105,0.3109,0.319,0.3202,0.3212,0,0,0,0,0,0.3082,0.3095,0.3097,0.31,0.3104,0.3121,0.3123,0.3115,0.3107,0.3123,0.3112,0.308,0.3093,0.3068,0.3066,0.3102,0.3098,0.3104,0.3109,0.3185,0.32,0.3212,0,0,0,0,0,0,0.3096,0.3094,0.3095,0.3108,0.3124,0.3117,0.3134,0.3133,0.3138,0.3136,0.3105,0.31,0.313,0.3111,0.3084,0.314,0.3093,0.3098,0.3152,0.3166,0.3176,0.3147,0.3031,0,0,0,0,0,0.3107,0.3115,0.312,0.3136,0.3145,0.3147,0.3157,0.3155,0.3155,0.3157,0.3142,0.3138,0.315,0.3153,0.3151,0.3181,0.3187,0.3206,0.3217,0.3227,0.3204,0.328,0.3296,0.3129,0.3129,0.3129,0,0,0.3118,0.312,0.3126,0.3141,0.3149,0.3164,0.315,0.3173,0.3187,0.3153,0.3168,0.3173,0.3168,0.3198,0.3211,0.3186,0.3284,0.3233,0.3241,0.3212,0.3288,0.3304,0.3318,0.3132,0.3132,0.3131,0,0,0.3134,0.3147,0.3155,0.3173,0.3195,0.3195,0.3209,0.3214,0.3222,0.3247,0.3232,0.3257,0.3265,0.3269,0.3273,0.3347,0.334,0.3361,0.3389,0.3466,0.3479,0.3492,0.3544,0.356,0.3366,0.3366,0.3366,0,0.3149,0.3153,0.3165,0.3181,0.3197,0.3211,0.3227,0.3244,0.3255,0.3268,0.3261,0.3298,0.3295,0.3338,0.3361,0.3369,0.3406,0.3338,0.3479,0.3491,0.3502,0.3553,0.3569,0.337,0.337,0.3369,0.3369,0,0.3162,0.3178,0.3189,0.3206,0.3231,0.3251,0.3274,0.33,0.3313,0.3323,0.3372,0.3379,0.3397,0.342,0.3408,0.3489,0.349,0.3487,0.3443,0.3524,0.3572,0.3588,0.3377,0.3376,0.3374,0.3373,0,0,0.3146,0.3187,0.3193,0.3202,0.3244,0.3257,0.3303,0.3336,0.3362,0.3394,0.3432,0.3468,0.3475,0.348,0.3489,0.3547,0.3668,0.3551,0.3553,0.3595,0.3837,0.3641,0.3639,0.3706,0.3709,0.3711,0.3848,0,0.3148,0.3179,0.32,0.323,0.324,0.3281,0.3315,0.3357,0.3395,0.3438,0.3478,0.3514,0.3501,0.3525,0.3584,0.3642,0.371,0.363,0.3755,0.3758,0.3568,0.365,0.3376,0.3457,0.3863,0.3865,0.3867,0,0.3141,0.3157,0.3189,0.3227,0.3237,0.3264,0.3322,0.3358,0.3435,0.3468,0.3524,0.3552,0.3628,0.3615,0.3754,0.3711,0.3775,0.382,0.3827,0.3611,0.3588,0.3437,0.3469,0.3893,0.3891,0.3889,0.3887,0,0.3104,0.3147,0.3169,0.3186,0.3233,0.3261,0.3296,0.3368,0.3399,0.3497,0.3533,0.3622,0.367,0.3771,0.3843,0.3827,0.3996,0.399,0.3875,0.3863,0.3627,0.3587,0.4103,0.4103,0.4102,0.4102,0.4102,0,0.3085,0.3097,0.3155,0.3162,0.3182,0.3238,0.3275,0.333,0.3411,0.3451,0.3541,0.3585,0.3716,0.3812,0.3885,0.3908,0.404,0.3874,0.3883,0.3649,0.3611,0.3973,0.3956,0.4107,0.4106,0.4105,0.4104,0,0.3036,0.308,0.3091,0.3144,0.3162,0.318,0.3248,0.3273,0.3367,0.3432,0.3467,0.3589,0.3698,0.3808,0.3971,0.3927,0.3998,0.3984,0.3675,0.364,0.381,0.3796,0.3864,0.3858,0.3853,0.3849,0.3845,0,0.3021,0.3023,0.3063,0.3067,0.3089,0.3125,0.3145,0.3239,0.3273,0.3416,0.3439,0.3568,0.3591,0.372,0.3719,0.3782,0.393,0.3539,0.3421,0.3782,0.3786,0.378,0.3773,0.3184,0.3175,0.3168,0.3162,0,0.2966,0.2981,0.2981,0.2988,0.3007,0.3018,0.3067,0.3069,0.3184,0.3213,0.3287,0.3321,0.3433,0.3318,0.3356,0.3368,0.349,0.3387,0.3901,0.3244,0.314,0.3143,0.316,0.31,0.3106,0.311,0.3114,0.3116,0.2915,0.2894,0.2894,0.2874,0.2904,0.2881,0.2834,0.2871,0.2853,0.2848,0.3017,0.2964,0.3033,0.2889,0.2859,0.2865,0.3093,0.2992,0.3016,0.3047,0.2901,0.2789,0.2657,0.2661,0.2664,0.2667,0.2669,0,0.2801,0.2796,0.2779,0.2737,0.2675,0.2766,0.2749,0.2649,0.254,0.258,0.2572,0.2351,0.2254,0.2393,0.2278,0.2264,0.2279,0.221,0.2228,0.2291,0.2347,0.2167,0.1728,0.1725,0.1722,0.1719,0,0,0.2714,0.265,0.2607,0.2471,0.2479,0.2403,0.235,0.2228,0.2196,0.2018,0.1967,0.2074,0.2236,0.1899,0.1893,0.1796,0.2024,0.1731,0.2489,0.2569,0.2621,0.2804,0.2596,0,0,0,0,0]},{"header":{"parameterUnit":"m.s-1","parameterCategory":2,"la1":30.2991,"la2":30.254,"lo1":-89.0895,"lo2":-89.0444,"dy":0.0017,"dx":0.0017,"nx":28,"ny":28,"refTime":"2024-07-27T21:00:00:Z","depth":"2","parameterNumber":3,"parameterNumberName":"V-component_of_CURRENTS"},"data":[0,0,0,0,0,0,0,0,0,0,0,0,0,0,0,0,0,0,0,0,0,0,0,0,0,0,0,0,0,0,0,0,0,0,0,0,0,0,0,0,0,0,0,0,0,0,0,0,0,0,0,0,0,0,0,0,0,0,0.0423,0.0423,0,0.0328,0.0327,0.0326,0.0239,0.0239,0.0238,0.0237,0.0091,0.0088,0.0085,0,0,0,0,0,0,0,0,0,0,0,0,0,0.0463,0.0463,0.0424,0.0423,0.0422,0.0329,0.0327,0.0325,0.024,0.0239,0.0238,0.0237,0.0092,0.0088,0.0084,0,0,0,0,0,0,0,0,0,0,0,0,0,0.0413,0.0463,0.0424,0.0369,0.0364,0.0329,0.0327,0.0325,0.024,0.0238,0.0237,0.0236,0.0093,0.0089,0.0084,0.0079,0,0,0.007,0.0068,0,0,0,0,0,0,0,0,0.0416,0.0411,0.0378,0.0373,0.0367,0.0297,0.0288,0.0241,0.024,0.0284,0.0237,0.0236,0.0157,0.0147,0.0129,0.0072,0.0066,0.0069,0.0066,0.0064,0.0063,0,0,0,0,0,0,0,0.042,0.0415,0.0383,0.0377,0.037,0.0327,0.0319,0.0278,0.0226,0.028,0.0274,0.0268,0.0153,0.0134,0.0125,0.0064,0.0069,0.0065,0.0062,0.006,-0.003,-0.0029,0,0,0,0,0,0,0.0441,0.0418,0.0386,0.0381,0.0392,0.0328,0.0318,0.0318,0.0227,0.0213,0.0269,0.0264,0.0143,0.0131,0.012,0.0092,0.0064,0.006,0.0057,-0.003,-0.003,-0.0029,0,0,0,0,0,0,0.0443,0.044,0.039,0.0399,0.039,0.0329,0.0329,0.0317,0.0284,0.022,0.0204,0.0248,0.0141,0.0126,0.0084,0.0086,0.0058,0.0054,-0.0031,-0.003,-0.0029,0.0046,0,0,0,0,0,0,0.0444,0.0441,0.0437,0.0401,0.039,0.0376,0.033,0.0316,0.0284,0.0277,0.0197,0.0182,0.0139,0.0091,0.0079,0.0079,0.005,-0.0031,-0.003,-0.003,0.0043,0.0049,0.0055,0,0,0,0,0,0.0446,0.0449,0.0438,0.0433,0.0391,0.0377,0.0367,0.0317,0.0285,0.028,0.0225,0.0184,0.0087,0.0088,0.0073,0.0072,-0.0032,-0.0031,-0.003,0.0041,0.0048,0.0054,0,0,0,0,0,0,0.0453,0.044,0.0426,0.0422,0.0405,0.0363,0.0347,0.0318,0.027,0.0251,0.0189,0.0172,0.0136,0.0096,0.0099,0.0049,0.0021,0.0019,0.008,0.0086,0.0092,0.0104,0.0046,0,0,0,0,0,0.046,0.0459,0.0443,0.0435,0.0432,0.0389,0.0371,0.0342,0.0301,0.0277,0.0222,0.0166,0.0132,0.0103,0.0062,0.0035,0.0007,0.0025,0.003,0.0036,0.0036,0.0015,0.0019,-0.0026,-0.0026,-0.0026,0,0,0.0456,0.045,0.0445,0.0437,0.0414,0.0418,0.0374,0.0351,0.0344,0.027,0.0229,0.0182,0.013,0.0101,0.0081,0.0065,0.0034,0.0037,0.0042,0.0039,0.0016,0.0021,0.0025,-0.0025,-0.0025,-0.0026,0,0,0.0461,0.0451,0.0457,0.0455,0.0437,0.0422,0.0421,0.038,0.0352,0.032,0.0267,0.0229,0.016,0.0132,0.0109,0.0123,0.0068,0.01,0.0133,0.0113,0.0117,0.012,0.0095,0.0095,0.01,0.01,0.0101,0,0.0453,0.0467,0.0455,0.0467,0.0466,0.0432,0.0443,0.0421,0.0365,0.0353,0.0315,0.0231,0.0181,0.0165,0.0161,0.0137,0.0109,0.0113,0.0122,0.0124,0.0126,0.0099,0.0098,0.0104,0.0104,0.0103,0.0103,0,0.0473,0.0481,0.0486,0.0498,0.0499,0.05,0.0487,0.0471,0.0432,0.0407,0.0369,0.0303,0.025,0.0235,0.0195,0.0183,0.0154,0.0136,0.0108,0.0135,0.0105,0.0103,0.011,0.0108,0.0107,0.0106,0,0,0.0468,0.0494,0.0493,0.0512,0.0516,0.0521,0.0525,0.0526,0.0528,0.0469,0.0464,0.0396,0.0343,0.0314,0.026,0.024,0.0223,0.0186,0.0184,0.0168,0.0168,0.0136,0.013,0.02,0.02,0.02,0.0144,0,0.0485,0.0518,0.0524,0.0557,0.0583,0.0573,0.0585,0.0578,0.0557,0.0545,0.0489,0.0452,0.038,0.0342,0.0313,0.0247,0.0219,0.0239,0.0137,0.0134,0.0109,0.0128,0.0134,0.0083,0.0141,0.0141,0.014,0,0.0507,0.0533,0.0564,0.0606,0.0614,0.0619,0.0641,0.0643,0.0636,0.0614,0.0574,0.0523,0.0471,0.0408,0.0309,0.032,0.0241,0.0195,0.0191,0.0133,0.0099,0.0063,0.0075,0.0136,0.0136,0.0137,0.0137,0,0.0524,0.0563,0.0589,0.0602,0.064,0.0641,0.0646,0.0651,0.0667,0.0643,0.0649,0.0579,0.0531,0.0442,0.0328,0.0305,0.024,0.0198,0.0102,0.0098,0.0069,0.0063,0.0132,0.0132,0.0133,0.0133,0.0133,0,0.0556,0.0579,0.0592,0.0612,0.0648,0.0652,0.0678,0.0681,0.0691,0.0733,0.0661,0.0687,0.0533,0.0479,0.0366,0.0235,0.026,0.0109,0.0084,0.0095,0.0092,0.0108,0.0106,0.0131,0.0131,0.0131,0.0132,0,0.0578,0.0584,0.0625,0.0651,0.0659,0.0674,0.0703,0.0738,0.0726,0.0779,0.077,0.0748,0.0672,0.0541,0.0407,0.0278,0.0168,0.0116,0.0137,0.0114,0.0023,0.0026,-0.002,-0.0022,-0.0023,-0.0024,-0.0025,0,0.0591,0.0613,0.0647,0.0674,0.068,0.0703,0.074,0.0748,0.0802,0.0844,0.0896,0.0831,0.0843,0.0636,0.0396,0.0189,0.0178,0.0038,-0.0012,0.0029,0.0009,0.0013,0.0017,-0.0021,-0.0022,-0.0023,-0.0023,0,0.063,0.0628,0.0666,0.0714,0.0747,0.0808,0.0855,0.0927,0.0965,0.1035,0.115,0.116,0.0919,0.0717,0.038,0.0235,0.0066,0.0015,0.0068,0.0017,0.0023,0.0005,0.001,-0.0029,-0.0028,-0.0028,-0.0028,-0.0027,0.0648,0.0676,0.0711,0.0773,0.0817,0.0922,0.1006,0.1097,0.1229,0.1323,0.1336,0.1318,0.1028,0.0592,0.0336,0.0018,0.0025,-0.0092,-0.0087,-0.0083,-0.0073,-0.0069,-0.0137,-0.0137,-0.0137,-0.0137,-0.0137,0,0.0678,0.0711,0.0772,0.0852,0.0938,0.0939,0.1098,0.1197,0.1394,0.1425,0.1489,0.1226,0.0972,0.0643,0.0164,-0.0105,-0.0126,-0.0186,-0.0146,-0.0139,-0.0132,-0.0123,-0.0202,-0.0203,-0.0203,-0.0204,0,0,0.0695,0.076,0.081,0.0958,0.1012,0.1122,0.1237,0.1377,0.1439,0.1513,0.146,0.1366,0.1014,0.0661,0.031,0.0052,0.0012,-0.0007,0.007,0.0165,0.0174,-0.0057,-0.0032,0,0,0,0,0]}],[{"header":{"parameterUnit":"m.s-1","parameterCategory":2,"la1":30.2991,"la2":30.254,"lo1":-89.0895,"lo2":-89.0444,"dy":0.0017,"dx":0.0017,"nx":28,"ny":28,"refTime":"2024-07-27T21:00:00:Z","depth":"4","parameterNumber":2,"parameterNumberName":"U-component_of_CURRENTS"},"data":[0,0,0,0,0,0,0,0,0,0,0,0,0,0,0,0,0,0,0,0,0,0,0,0,0,0,0,0,0,0,0,0,0,0,0,0,0,0,0,0,0,0,0,0,0,0,0,0,0,0,0,0,0,0,0,0,0,0,0.0721,0.0722,0,0.0821,0.0821,0.0822,0.0858,0.0858,0.0858,0.0859,0.0896,0.0896,0.0897,0,0,0,0,0,0,0,0,0,0,0,0,0,0.0652,0.0652,0.0721,0.0723,0.0724,0.0821,0.0821,0.0822,0.0858,0.0858,0.0858,0.0859,0.0896,0.0896,0.0897,0,0,0,0,0,0,0,0,0,0,0,0,0,0.0703,0.0652,0.072,0.0759,0.0764,0.0821,0.0821,0.0822,0.0858,0.0858,0.0859,0.0859,0.0895,0.0896,0.0897,0.0896,0,0,0.0901,0.0901,0,0,0,0,0,0,0,0,0.07,0.0704,0.0751,0.0757,0.0762,0.0833,0.0811,0.0846,0.0858,0.0815,0.0859,0.0859,0.0873,0.0876,0.0885,0.0897,0.0899,0.0901,0.0901,0.0902,0.0902,0,0,0,0,0,0,0,0.0696,0.0701,0.0753,0.0754,0.076,0.0803,0.0809,0.0818,0.0834,0.0819,0.0823,0.0845,0.0875,0.0884,0.0886,0.0899,0.0901,0.0902,0.0902,0.0903,0.1024,0.1027,0,0,0,0,0,0,0.0693,0.0697,0.075,0.0757,0.0739,0.0804,0.0811,0.0804,0.0835,0.0843,0.0845,0.0847,0.0882,0.0885,0.0888,0.098,0.0902,0.0903,0.0904,0.1022,0.1025,0.1028,0,0,0,0,0,0,0.069,0.0695,0.0746,0.0737,0.0747,0.0805,0.0798,0.0806,0.0839,0.0857,0.0862,0.0872,0.0882,0.0886,0.0934,0.0978,0.0903,0.0904,0.1019,0.1023,0.1026,0.1106,0,0,0,0,0,0,0.0687,0.0693,0.0709,0.0735,0.0748,0.0791,0.0798,0.0808,0.0854,0.0858,0.0882,0.0885,0.0883,0.0933,0.0935,0.0978,0.0905,0.1016,0.1021,0.1025,0.11,0.1112,0.1122,0,0,0,0,0,0.0684,0.0703,0.0708,0.0717,0.0759,0.0793,0.0802,0.0841,0.0855,0.0871,0.0905,0.0885,0.0965,0.0936,0.0938,0.0982,0.1013,0.1019,0.1025,0.1095,0.1109,0.1122,0,0,0,0,0,0,0.0679,0.071,0.0716,0.0742,0.077,0.0802,0.0839,0.0854,0.0893,0.0911,0.0912,0.0918,0.0975,0.0972,0.0939,0.1035,0.0988,0.0995,0.1041,0.1054,0.1065,0.1074,0.0906,0,0,0,0,0,0.0685,0.0705,0.0734,0.0754,0.0774,0.0807,0.0835,0.0858,0.0892,0.091,0.0928,0.0961,0.0997,0.102,0.1039,0.109,0.108,0.1123,0.1134,0.1144,0.1155,0.1183,0.1197,0.1047,0.1047,0.1047,0,0,0.0689,0.071,0.0723,0.0756,0.0784,0.0816,0.0823,0.0873,0.0886,0.0907,0.0945,0.0992,0.1017,0.1078,0.1104,0.1085,0.1182,0.1151,0.1159,0.1165,0.1191,0.1205,0.1218,0.1051,0.105,0.1049,0,0,0.0704,0.0724,0.0749,0.0771,0.0825,0.0849,0.0866,0.0909,0.0916,0.0967,0.0993,0.1076,0.1111,0.1155,0.1177,0.1262,0.1233,0.1274,0.1344,0.1372,0.1384,0.1395,0.1397,0.1407,0.1287,0.1288,0.1288,0,0.072,0.0738,0.0763,0.0789,0.082,0.0862,0.0894,0.0903,0.0955,0.0986,0.0988,0.1136,0.1147,0.1252,0.1289,0.1285,0.129,0.1288,0.1385,0.1395,0.1404,0.1404,0.1414,0.1292,0.1292,0.1291,0.1291,0,0.0734,0.0768,0.0787,0.0829,0.086,0.0901,0.092,0.0962,0.0999,0.103,0.114,0.1199,0.1302,0.1322,0.133,0.1431,0.1408,0.1385,0.1345,0.1424,0.1419,0.1428,0.1299,0.1297,0.1296,0.1294,0,0,0.0727,0.079,0.08,0.0829,0.0889,0.0916,0.0954,0.1015,0.1065,0.1139,0.1218,0.1325,0.1405,0.1438,0.1485,0.1522,0.1586,0.1496,0.1495,0.1488,0.164,0.1545,0.1544,0.1585,0.1587,0.1589,0.1607,0,0.0742,0.0798,0.0824,0.0885,0.092,0.0971,0.1004,0.1064,0.1117,0.1197,0.1296,0.1379,0.1425,0.1502,0.1564,0.1588,0.1615,0.1582,0.1574,0.1573,0.147,0.1554,0.1596,0.1614,0.1615,0.1617,0.1618,0,0.0744,0.0788,0.085,0.0927,0.0949,0.0996,0.1096,0.1131,0.1238,0.1286,0.1433,0.1478,0.1613,0.1592,0.1716,0.17,0.168,0.1676,0.1676,0.1566,0.1496,0.1521,0.1633,0.1632,0.1631,0.163,0.1629,0,0.0726,0.0803,0.086,0.0881,0.0976,0.1028,0.1093,0.1191,0.124,0.1355,0.1437,0.1576,0.1688,0.1706,0.1738,0.1726,0.1811,0.1778,0.1669,0.1661,0.1701,0.169,0.1806,0.1806,0.1806,0.1806,0.1806,0,0.0717,0.0762,0.0866,0.0897,0.0975,0.1043,0.1137,0.1213,0.1343,0.1416,0.1512,0.1598,0.1723,0.1782,0.1758,0.177,0.1836,0.1698,0.1671,0.1734,0.1726,0.1706,0.1695,0.1807,0.1806,0.1806,0.1806,0,0.0669,0.0741,0.0814,0.0933,0.097,0.1031,0.1163,0.1223,0.1365,0.1469,0.1509,0.1672,0.1753,0.1818,0.1852,0.1817,0.1781,0.1737,0.1805,0.1778,0.1602,0.1594,0.1636,0.1633,0.163,0.1628,0.1627,0,0.0649,0.0685,0.0823,0.0864,0.0923,0.1018,0.1075,0.1222,0.1279,0.1478,0.1517,0.1662,0.1733,0.1751,0.1803,0.1769,0.1731,0.1699,0.1659,0.1621,0.1591,0.1587,0.1583,0.1623,0.1622,0.1621,0.1621,0,0.0603,0.0666,0.0718,0.0817,0.0888,0.0944,0.1043,0.1095,0.1249,0.1388,0.1482,0.1526,0.1638,0.1689,0.1699,0.1648,0.1722,0.1673,0.1677,0.1639,0.1605,0.1577,0.1576,0.1612,0.1613,0.1614,0.1615,0,0.0575,0.0585,0.0672,0.0742,0.0821,0.0861,0.0921,0.1,0.1096,0.132,0.1331,0.1475,0.1614,0.1623,0.1599,0.1594,0.1564,0.1489,0.1502,0.1512,0.1465,0.1404,0.1343,0,0,0,0,0,0.0551,0.054,0.0588,0.0665,0.0738,0.0791,0.0888,0.0951,0.1105,0.1135,0.1245,0.1303,0.1372,0.1443,0.1414,0.1528,0.1553,0.1483,0.1468,0.1564,0.1574,0.1531,0,0,0,0,0,0,0.0527,0.0553,0.0555,0.0584,0.0628,0.0692,0.0757,0.0852,0.0884,0.1049,0.1098,0.1215,0.13,0.1382,0.139,0.1407,0.1365,0.157,0.1566,0.1558,0.1567,0.1575,0.1535,0,0,0,0,0]},{"header":{"parameterUnit":"m.s-1","parameterCategory":2,"la1":30.2991,"la2":30.254,"lo1":-89.0895,"lo2":-89.0444,"dy":0.0017,"dx":0.0017,"nx":28,"ny":28,"refTime":"2024-07-27T21:00:00:Z","depth":"4","parameterNumber":3,"parameterNumberName":"V-component_of_CURRENTS"},"data":[0,0,0,0,0,0,0,0,0,0,0,0,0,0,0,0,0,0,0,0,0,0,0,0,0,0,0,0,0,0,0,0,0,0,0,0,0,0,0,0,0,0,0,0,0,0,0,0,0,0,0,0,0,0,0,0,0,0,0.0357,0.0357,0,0.0305,0.0304,0.0304,0.0288,0.0288,0.0288,0.0289,0.022,0.0218,0.0216,0,0,0,0,0,0,0,0,0,0,0,0,0,0.0377,0.0378,0.0357,0.0357,0.0356,0.0305,0.0304,0.0303,0.0288,0.0288,0.0289,0.0289,0.0221,0.0218,0.0216,0,0,0,0,0,0,0,0,0,0,0,0,0,0.0351,0.0378,0.0357,0.0342,0.034,0.0305,0.0304,0.0303,0.0288,0.0288,0.0289,0.0289,0.0222,0.0219,0.0216,0.0188,0,0,0.0206,0.0205,0,0,0,0,0,0,0,0,0.0353,0.0351,0.0345,0.0343,0.0341,0.0303,0.0286,0.0264,0.0288,0.0308,0.0289,0.0289,0.0246,0.0241,0.0231,0.0185,0.0182,0.0206,0.0204,0.0203,0.0202,0,0,0,0,0,0,0,0.0355,0.0352,0.0336,0.0344,0.0342,0.0315,0.0312,0.0281,0.0275,0.0306,0.0305,0.0299,0.0245,0.0234,0.0229,0.0181,0.0206,0.0203,0.0201,0.02,0.0114,0.0114,0,0,0,0,0,0,0.0364,0.0355,0.0338,0.0335,0.0348,0.0315,0.0312,0.0315,0.0276,0.027,0.0298,0.0298,0.0239,0.0232,0.0226,0.0209,0.0203,0.02,0.0198,0.0114,0.0114,0.0113,0,0,0,0,0,0,0.0365,0.0364,0.034,0.0343,0.0338,0.0314,0.0318,0.0314,0.0311,0.027,0.0264,0.0301,0.0239,0.0231,0.0202,0.0206,0.0198,0.0195,0.0115,0.0114,0.0114,0.0163,0,0,0,0,0,0,0.0366,0.0365,0.0378,0.0344,0.0338,0.033,0.0317,0.0312,0.0306,0.0305,0.027,0.0263,0.0238,0.0206,0.0199,0.0201,0.0193,0.0115,0.0115,0.0114,0.0162,0.0165,0.0166,0,0,0,0,0,0.0367,0.038,0.0379,0.0377,0.0355,0.033,0.0325,0.0309,0.0306,0.0307,0.0278,0.0265,0.0196,0.0203,0.0194,0.0196,0.0116,0.0115,0.0114,0.0161,0.0164,0.0166,0,0,0,0,0,0,0.0393,0.0379,0.0377,0.0386,0.0366,0.0328,0.033,0.0315,0.0293,0.0297,0.0258,0.0249,0.0223,0.02,0.0209,0.0167,0.0154,0.0151,0.0193,0.0196,0.0198,0.0221,0.019,0,0,0,0,0,0.0406,0.0415,0.0391,0.0397,0.0392,0.0363,0.0354,0.0343,0.0315,0.0307,0.0276,0.0243,0.0209,0.0197,0.0163,0.0142,0.0112,0.0136,0.0138,0.0141,0.0151,0.0099,0.0098,0.011,0.011,0.011,0,0,0.0419,0.041,0.0417,0.0403,0.0388,0.0383,0.0359,0.0352,0.0338,0.0302,0.0277,0.0248,0.0203,0.0178,0.0165,0.0163,0.012,0.0139,0.0142,0.0152,0.0098,0.0097,0.0096,0.011,0.011,0.011,0,0,0.044,0.0441,0.0455,0.0437,0.042,0.0406,0.0407,0.0376,0.0357,0.0331,0.0296,0.0273,0.0223,0.0192,0.017,0.0162,0.0129,0.0152,0.0187,0.0136,0.0135,0.0133,0.0094,0.0089,0.0158,0.0159,0.0159,0,0.0459,0.0469,0.0453,0.0448,0.0441,0.042,0.0425,0.0395,0.0355,0.0337,0.0332,0.0269,0.0229,0.0199,0.0194,0.0169,0.0138,0.0185,0.014,0.0138,0.0136,0.0096,0.009,0.0161,0.0161,0.016,0.016,0,0.0474,0.0487,0.0489,0.0485,0.0474,0.0475,0.0437,0.0425,0.0407,0.0374,0.0344,0.03,0.0271,0.0248,0.0217,0.0186,0.0169,0.0146,0.0139,0.0138,0.0095,0.0088,0.0164,0.0163,0.0163,0.0162,0,0,0.0512,0.0509,0.0511,0.0519,0.0496,0.0491,0.047,0.0447,0.0439,0.0402,0.0387,0.0332,0.0325,0.0299,0.0266,0.0222,0.0172,0.0186,0.0182,0.0158,0.0067,0.0057,0.0047,0.0142,0.0141,0.014,0.0045,0,0.0537,0.0553,0.0539,0.0557,0.0565,0.0536,0.0525,0.0494,0.0459,0.0433,0.0387,0.0354,0.0337,0.033,0.0291,0.02,0.0155,0.0201,0.0063,0.006,0.0059,0.0039,0.0136,0.0039,0.0037,0.0036,0.0035,0,0.0556,0.0567,0.0596,0.0606,0.0609,0.0622,0.0612,0.0597,0.0541,0.0512,0.0487,0.0427,0.0377,0.0351,0.0236,0.0268,0.0177,0.0105,0.0099,0.007,0.0035,0.0037,0.0021,0.0022,0.0023,0.0024,0.0025,0,0.059,0.0606,0.064,0.0636,0.0642,0.0661,0.0677,0.0636,0.0634,0.0564,0.0558,0.0478,0.0471,0.0343,0.0206,0.021,0.0063,0.0043,-0.005,-0.0051,-0.0033,-0.0031,-0.0058,-0.0058,-0.0058,-0.0058,-0.0057,0,0.0611,0.0638,0.0671,0.0685,0.0737,0.0724,0.0767,0.0749,0.0741,0.0734,0.063,0.0608,0.0467,0.0358,0.0213,0.0074,0.007,-0.0044,-0.0079,-0.0011,-0.0005,-0.0039,-0.0035,-0.0061,-0.006,-0.006,-0.0059,0,0.0629,0.0652,0.0693,0.0733,0.0758,0.0797,0.0859,0.0873,0.0863,0.0854,0.0833,0.0727,0.0576,0.041,0.02,0.0114,-0.0063,-0.0124,-0.003,-0.0059,-0.0145,-0.0137,-0.0228,-0.0229,-0.023,-0.0231,-0.0232,0,0.0634,0.0661,0.0736,0.0775,0.0805,0.0871,0.0914,0.0938,0.0942,0.0908,0.0897,0.077,0.0662,0.0392,0.0208,-0.0064,-0.0103,-0.018,-0.0168,-0.0138,-0.0163,-0.0155,-0.0146,-0.0234,-0.0234,-0.0234,-0.0234,0,0.0635,0.0676,0.071,0.0805,0.0871,0.0927,0.0989,0.1015,0.1014,0.1012,0.0921,0.0758,0.0608,0.0386,0.0189,-0.0016,-0.0125,-0.0191,-0.019,-0.0179,-0.0146,-0.0168,-0.0159,-0.0238,-0.0237,-0.0237,-0.0237,0,0.0636,0.0661,0.0728,0.0803,0.0892,0.0952,0.0991,0.0998,0.1021,0.0982,0.0947,0.0762,0.0675,0.0408,0.0204,0.0026,-0.0018,-0.0072,-0.0078,-0.0076,-0.0006,0.0061,0.0002,0,0,0,0,0,0.0623,0.0649,0.0719,0.0798,0.0892,0.0947,0.1012,0.1036,0.1048,0.0987,0.0973,0.0797,0.0527,0.0412,0.023,0.018,-0.0051,-0.0039,-0.0116,-0.0258,-0.0254,-0.0198,0,0,0,0,0,0,0.0606,0.0667,0.0699,0.0784,0.0845,0.0938,0.0988,0.0999,0.0962,0.0953,0.081,0.075,0.0485,0.0625,0.0224,0.0171,0.0098,-0.0161,-0.0165,-0.026,-0.0256,-0.0253,-0.0195,0,0,0,0,0]}]]